User: anonymous   Login
Location: Strawberry
(45.6646°N, 111.9596°W)
Time: 12:17:17
(UTC+00:00)
Language:

AO-91 - Orbit

View from above orbital plane
View from above orbital plane
View from above satellite
View from above satellite

Ground track
Ground track

The orbit data is extracted from the following two-line orbital elements,

1 43017U 17073E   22337.97658294  .00005431  00000-0  40162-3 0  9999
2 43017  97.6539 225.1620 0244086 352.4645   7.2925 14.82765774272228
Epoch (UTC): 03 December 2022 23:26:16
Eccentricity: 0.0244086
inclination: 97.6539°
perigee height: 450 km
apogee height: 791 km
right ascension of ascending node: 225.1620°
argument of perigee: 352.4645°
revolutions per day: 14.82765774
mean anomaly at epoch: 7.2925°
orbit number at epoch: 27222

The dashed part of the orbit path shows where the satellite is in the earth's shadow,  

DLR